User: anonymous   Login
Location: Feydey
(46.3431°N, 7.0106°E)
Time: 08:45:57
(UTC+00:00)
Language:

Cosmos 1459 Rocket - Orbit

View from above orbital plane
View from above orbital plane
View from above satellite
View from above satellite

Ground track
Ground track

The orbit data is extracted from the following two-line orbital elements,

1 14059U 83042B   21263.72141180  .00000050  00000-0  34128-4 0  9991
2 14059  82.9758 346.4788 0041966 213.1513 146.7015 13.78741124929969
Epoch (UTC): 20 September 2021 17:18:49
Eccentricity: 0.0041966
inclination: 82.9758°
perigee height: 937 km
apogee height: 999 km
right ascension of ascending node: 346.4788°
argument of perigee: 213.1513°
revolutions per day: 13.78741124
mean anomaly at epoch: 146.7015°
orbit number at epoch: 92996

The dashed part of the orbit path shows where the satellite is in the earth's shadow,  

DLR